Tracking 20712 objects as of 29-May-2020
HD Live streaming from Space Station
objects crossing your sky now

IRIDIUM 33 DEB

Track IRIDIUM 33 DEB now!
10-day predictions


NORAD ID: 35480
Int'l Code: 1997-051QA
Perigee: 754.9 km
Apogee: 775.9 km
Inclination: 86.4 °
Period: 100.0 minutes
Semi major axis: 7136 km
RCS: 0.0115 m2 (small)
Launch date: September 14, 1997
Source: United States (US)
Launch site: TYURATAM MISSILE AND SPACE COMPLEX (TTMTR)

Note: This is SATELLITE DEBRIS
aabbcc
Your satellite tracking list
Your tracking list is empty




NASA's NSSDC Master Catalog

Two Line Element Set (TLE):
1 35480U 97051QA  20149.34052664 +.00000297 +00000-0 +87812-4 0  9996
2 35480 086.3620 172.1995 0014718 328.0749 031.9557 14.40072098581363
Source of the keplerian elements: AFSPC